Regional Weather Roundup
Issued by NWS

Home | Current Version | Previous Version | Text Only | Print | Product List | Glossary Off
Versions: 1 2 3 4 5 6 7 8 9 10 11 12 13 14 15 16 17 18 19 20 21 22 23 24 25 26 27 28 29 30 31 32 33 34 35 36 37 38 39 40 41 42 43 44 45 46 47 48 49 50

000
ASUS43 KBIS 270502
RWRND

NORTH DAKOTA REGIONAL WEATHER ROUNDUP
NATIONAL WEATHER SERVICE BISMARCK ND
1100 PM CST SUN FEB 26 2017

NOTE: "FAIR" INDICATES FEW OR NO CLOUDS BELOW 12,000 FEET WITH NO
SIGNIFICANT WEATHER AND/OR OBSTRUCTIONS TO VISIBILITY.


NDZ001>003-009>011-017-270600-
NORTHWEST NORTH DAKOTA

CITY           SKY/WX    TMP DP  RH WIND       PRES   REMARKS
WILLISTON      FAIR      16  11  80 W9        29.81S WCI   4
MINOT          CLOUDY    17  11  77 SW10      29.80F WCI   5
MINOT AFB      CLOUDY    16  12  83 W8        29.79F WCI   5
$$

NDZ018>021-031>035-040>046-270600-
SOUTHWEST NORTH DAKOTA

CITY           SKY/WX    TMP DP  RH WIND       PRES   REMARKS
BISMARCK       FAIR      13  11  92 E3        29.86S
DICKINSON      FAIR      12   9  87 S3        29.76F
GARRISON         N/A      7   4  87 S5        29.80F WCI  -2
HETTINGER ARPT MOCLDY    18  15  88 CALM      29.79F
$$

NDZ004>008-012>016-024-026-027-054-270600-
NORTHEAST NORTH DAKOTA

CITY           SKY/WX    TMP DP  RH WIND       PRES   REMARKS
GRAND FORKS    CLEAR      6  -2  69 SW7       29.91R WCI  -6
GRND FRKS AFB  CLEAR      7   2  80 W7        29.90S WCI  -4
DEVILS LAKE    FAIR       2  -1  88 SW5       29.85S WCI  -8
$$

NDZ022-023-025-028>030-036>039-047>053-270600-
SOUTHEAST NORTH DAKOTA

CITY           SKY/WX    TMP DP  RH WIND       PRES   REMARKS
FARGO          CLOUDY    20  12  71 S8        29.91S WCI  10
JAMESTOWN      CLOUDY    21  15  78 S5        29.85S WCI  15
$$





USA.gov is the U.S. government's official web portal to all federal, state and local government web resources and services.